Location: Cerroniocc
(13.7547°S, 72.0222°W)
Time: 18:47:36
(UTC+00:00)

Cosmos 2266 Rocket - Pass Details

Date: 05 July 2020
Orbit: 935 x 1007 km, 82.9° (Epoch: 11 August)

Event Time Altitude Azimuth Distance (km) Brightness Sun altitude
Rises 23:30:32 0° 185° (S) 3,613 6.8 -13.8°
Reaches altitude 10° 23:33:02 10° 185° (S) 2,660 6.1 -14.3°
Maximum altitude 23:39:06 86° 274° (W) 943 3.9 -15.7°
Drops below altitude 10° 23:45:08 10° 2° (N) 2,640 6.5 -17.1°
Sets 23:47:36 0° 2° (N) 3,583 7.2 -17.7°
